Skip Page Navigation
NASA JPL Caltech
NASA Logo - Jet Propulsion Laboratory + View the NASA Portal
+ Center for Near-Earth Object Studies
JPL Home Earth Solar System Stars & Galaxies Technology
JPL Solar System Dynamics
BODIES ORBITS EPHEMERIDES TOOLS PHYSICAL DATA DISCOVERY FAQ SITE MAP
JPL Small-Body Database Browser
Search: [ help ]  
39890 Bobstephens (1998 FA3)
Classification: Main-belt Asteroid          SPK-ID: 2039890
Ephemeris | Orbit Diagram | Orbital Elements | Mission Design | Physical Parameters | Discovery Circumstances | Close-Approach Data ]

[ hide orbit diagram ]

For accurate long-term ephemerides, please instead use our Horizons system.This orbit viewer was implemented using two-body methods, and hence should not be used for determining accurate long-term trajectories (over several years or decades) or planetary encounter circumstances.


[ revert to old Java-based viewer ]

Orbital Elements at Epoch 2459000.5 (2020-May-31.0) TDB
Reference: JPL 14 (heliocentric ecliptic J2000)
 Element Value Uncertainty (1-sigma)   Units 
e .2173164082269902 5.0095e-08  
a 2.59036779593103 1.2232e-08 au
q 2.027438370532433 1.2695e-07 au
i 5.496154568046799 4.4359e-06 deg
node 161.6970252888779 5.5207e-05 deg
peri 95.63492111539176 5.6187e-05 deg
M 77.94011037821619 9.8376e-06 deg
tp 2458670.815073774212
(2019-Jul-06.31507377)
4.2127e-05 TDB
period 1522.791959946415
4.17
1.0786e-05
2.953e-08
d
yr
n .2364078675675881 1.6745e-09 deg/d
Q 3.153297221329626 1.489e-08 au
  Orbit Determination Parameters
   # obs. used (total)      582  
   data-arc span      9130 days (25.00 yr)  
   first obs. used      1995-10-26  
   last obs. used      2020-10-24  
   planetary ephem.      DE431  
   SB-pert. ephem.      SB431-N16  
   condition code      0  
   norm. resid. RMS      .60518  
   source      ORB  
   producer      Otto Matic  
   solution date      2020-Nov-13 00:19:13  

Additional Information
 Earth MOID = 1.02155 au 
 Jupiter MOID = 1.93714 au 
 T_jup = 3.380 
[ show covariance matrix ]

Ephemeris | Orbit Diagram | Orbital Elements | Mission Design | Physical Parameters | Discovery Circumstances | Close-Approach Data ]

Physical Parameter Table
Parameter Symbol Value Units Sigma Reference Notes
absolute magnitude H 15.9   n/a MPO493127  
rotation period rot_per 9.55 h n/a LCDB (Rev. 2019-August); Warner et al., 2009 Result based on less than full coverage, so that the period may be wrong by 30 percent or so.
Published Reference List:
[Coley, D. (2012) Minor Planet Bull. 39, 23-24.]

39890 Bobstephens           Discovered 1998 Mar. 23 by P. Pravec at Ondřejov.
Robert Stephens (b. 1955) is a Californian amateur astronomer who has determined some 30 sets of minor-planet lightcurve parameters since becoming active in the field in 1999. His high-quality work and generosity in sharing his time and knowledge within the amateur community have set a standard for others to follow.
NOTE: some special characters may not display properly (any characters within {} are an attempt to place the proper accent above a character)
Reference: 20020724/MPCPages.arcLast Updated: 2003-10-02

[ show close-approach data ]
Ephemeris | Orbit Diagram | Orbital Elements | Mission Design | Physical Parameters | Discovery Circumstances | Close-Approach Data ]
ABOUT SSD CREDITS/AWARDS PRIVACY/COPYRIGHT GLOSSARY LINKS
FirstGov 2020-Nov-30 13:28 UT
(server date/time)  
NASA Home Page
Site Manager:   Ryan S. Park
Webmaster  Alan B. Chamberlin